Home > Weather > Bandar-Abbas > Past weeks

Flag for Iran Weather for the Past 2 Weeks in Bandar-Abbas, Iran

Now
63 °F

Clear.


Feels Like: 63 °F
Forecast: 48 / 76 °F
Wind: 5 mph from West

Location: Bandarabbass

Current Time: Feb 14, 2016 at 10:51:56 PM

Latest Report: Feb 14, 2016 at 10:30 PM


Visibility: 10 mi

Pressure: 30.07 "Hg

Humidity: 64%

Dew point: 50 °F

Location of Bandar-AbbasLocation

Historic Weather in Bandar-Abbas — Graph

°F

Bandar-Abbas Temperature Yesterday

Maximum temperature yesterday: 77 °F (at 1:30 PM)
Minimum temperature yesterday: 54 °F (at 4:30 AM)
Average temperature yesterday: 67 °F

High & Low Weather Summary for the Past Weeks

 TemperatureHumidityPressure
High79 °F (Feb 5, 2:00 PM)94% (Jan 31, 6:30 AM)30.27 "Hg (Jan 31, 6:30 AM)
Low46 °F (Feb 1, 3:30 AM)18% (Feb 11, 12:30 PM)29.89 "Hg (Feb 11, 3:00 PM)
Average66 °F56%30.05 "Hg
* Reported Jan 30 9:30 PM — Feb 14 9:30 PM, Bandar-Abbas, Weather by CustomWeather, © 2016

Note: Actual official high and low records may vary slightly from our data, if they occured in-between our weather recording intervals... More about our weather records

Advertising

Bandar-Abbas Weather History for the Previous 24 Hours

 ConditionsComfort  
Time TempWeatherWind HumidityBarometerVisibility
9:30 PM
Sun, Feb 14
66 °FClear.5 mph56%30.07 "Hg10 mi
9:00 PM68 °FClear.5 mph56%30.07 "Hg10 mi
8:30 PM68 °FClear.7 mph60%30.07 "Hg10 mi
8:00 PM68 °FClear.5 mph56%30.04 "Hg10 mi
7:30 PM68 °FClear.7 mph64%30.04 "Hg10 mi
7:00 PM70 °FClear.5 mph60%30.04 "Hg10 mi
6:30 PM70 °FClear.7 mph57%30.04 "Hg10 mi
6:00 PM72 °FSunny.5 mph53%30.04 "Hg10 mi
5:30 PM73 °FSunny.7 mph44%30.01 "Hg10 mi
5:00 PM75 °FSunny.12 mph34%30.01 "Hg10 mi
4:30 PM75 °FSunny.9 mph34%30.01 "Hg10 mi
4:00 PM75 °FSunny.12 mph31%30.01 "Hg10 mi
3:30 PM77 °FSunny.14 mph34%30.01 "Hg10 mi
3:00 PM77 °FSunny.12 mph34%30.01 "Hg10 mi
2:30 PM77 °FSunny.7 mph32%30.01 "Hg10 mi
2:00 PM79 °FSunny.14 mph28%30.01 "Hg10 mi
1:30 PM79 °FSunny.9 mph24%30.04 "Hg10 mi
1:00 PM79 °FSunny.9 mph28%30.04 "Hg10 mi
12:30 PM79 °FSunny.7 mph26%30.07 "Hg10 mi
12:00 PM77 °FSunny.9 mph30%30.07 "Hg10 mi
11:00 AM77 °FSunny.7 mph24%30.09 "Hg10 mi
10:30 AM75 °FSunny.5 mph25%30.12 "Hg10 mi
10:00 AM75 °FSunny.5 mph25%30.12 "Hg10 mi
9:30 AM72 °FSunny.5 mph31%30.12 "Hg10 mi
9:00 AM70 °FSunny.5 mph38%30.12 "Hg10 mi
8:30 AM68 °FSunny.5 mph46%30.09 "Hg10 mi
8:00 AM66 °FSunny.5 mph56%30.09 "Hg10 mi
7:30 AM54 °FSunny.7 mph72%30.07 "Hg10 mi
7:00 AM52 °FSunny.7 mph72%30.07 "Hg10 mi
6:30 AM48 °FClear.5 mph82%30.07 "Hg10 mi
6:00 AM50 °FClear.5 mph76%30.04 "Hg10 mi
5:30 AM50 °FClear.5 mph82%30.04 "Hg10 mi
4:30 AM52 °FClear.7 mph77%30.04 "Hg10 mi
3:30 AM54 °FClear.5 mph82%30.04 "Hg10 mi
2:30 AM57 °FClear.7 mph72%30.04 "Hg10 mi
1:30 AM57 °FClear.7 mph77%30.04 "Hg10 mi
12:30 AM57 °FClear.7 mph82%30.07 "Hg10 mi
12:00 AM59 °FClear.7 mph77%30.07 "Hg10 mi
11:30 PM
Sat, Feb 13
59 °FClear.5 mph72%30.07 "Hg10 mi
11:00 PM61 °FClear.5 mph72%30.04 "Hg10 mi
10:30 PM64 °FClear.5 mph68%30.04 "Hg10 mi
10:00 PM66 °FClear.5 mph64%30.04 "Hg10 mi
Weather by CustomWeather, © 2016

See weather overviewHow to use our weather pages